Flag for United Kingdom Weather past 2 weeks in Brighton, England, United Kingdom

Now
68 °F

Passing clouds.


Feels Like: 68 °F
Forecast: 59 / 70 °F
Wind: 18 mph from Southwest

Location: Shoreham Airport

Current Time: Jul 31, 2014 at 2:58:15 PM

Latest Report: Jul 31, 2014 at 2:20 PM


Visibility: N/A

Pressure: 29.95 "Hg

Humidity: 73%

Dew point: 59 °F

Location of BrightonLocation

Historic Weather in Brighton — Graph

°F

Brighton temperature yesterday

Maximum temperature yesterday: 72 °F (at 1:20 PM)
Minimum temperature yesterday: 61 °F (at 7:50 AM)
Average temperature yesterday: 68 °F

Past Weeks' High & Low Weather Summary

 TemperatureHumidityPressure
High82 °F (Jul 23, 3:20 PM)94% (Jul 19, 6:50 PM)30.18 "Hg (Jul 19, 6:50 PM)
Low57 °F (Jul 28, 8:50 AM)39% (Jul 24, 7:20 PM)29.74 "Hg (Jul 19, 10:20 AM)
Average72 °F70%29.99 "Hg
* Reported Jul 16 1:20 PM — Jul 31 1:20 PM, Brighton, Weather by CustomWeather, © 2014

Note: Actual official high and low records may vary slightly from our data, if they occured in-between our weather recording intervals... More about our weather records

Advertising

Brighton weather history for previous 24 hours

 ConditionsComfort  
Time TempWeatherWind HumidityBarometerVisibility
1:20 PM
Jul 31
68 °FPassing clouds.16 mph73%29.98 "HgN/A
12:50 PM70 °FPassing clouds.16 mph69%29.98 "HgN/A
12:20 PM68 °FPassing clouds.15 mph69%29.98 "HgN/A
11:50 AM68 °FScattered clouds.15 mph69%29.98 "HgN/A
11:20 AM68 °FScattered clouds.16 mph69%29.98 "HgN/A
10:50 AM68 °FScattered clouds.15 mph73%29.98 "HgN/A
10:20 AM68 °FPassing clouds.15 mph73%29.98 "HgN/A
9:50 AM66 °FPassing clouds.9 mph73%29.98 "HgN/A
9:20 AM66 °FPassing clouds.7 mph73%29.98 "HgN/A
8:50 AM64 °FPassing clouds.7 mph78%29.98 "HgN/A
8:20 AM64 °FSunny.7 mph78%29.98 "Hg10 mi
7:50 AM63 °FSunny.3 mph83%29.98 "Hg10 mi
7:50 PM
Jul 30
68 °FSunny.14 mph78%29.98 "Hg10 mi
6:50 PM70 °FPassing clouds.15 mph73%29.98 "HgN/A
6:20 PM70 °FPassing clouds.16 mph73%29.98 "HgN/A
5:50 PM70 °FPassing clouds.17 mph73%29.98 "HgN/A
5:20 PM70 °FPassing clouds.18 mph73%29.98 "HgN/A
4:50 PM70 °FPassing clouds.21 mph73%30.01 "HgN/A
4:20 PM70 °FPassing clouds.20 mph73%30.01 "HgN/A
3:50 PM72 °FPassing clouds.16 mph65%30.01 "HgN/A
3:20 PM70 °FPassing clouds.12 mph69%30.01 "HgN/A
2:50 PM70 °FPassing clouds.20 mph64%30.01 "HgN/A
2:20 PM70 °FPassing clouds.17 mph64%30.01 "HgN/A
Weather by CustomWeather, © 2014

See weather overviewHow to use our weather pages